RH
19 18 17 17 17 15 15 16 16 15 14 15 16 18 20 21 22 21 22 23 24 24 23 24 25 25 26 27 29 30 34 35 35 35 36 35 34 32 33 34 35 39
21 21 18 17 18 17 16 16 15 13 13 13 16 20 23 24 24 23 22 22 22 22 22 22 23 24 27 29 31 33 35 35 35 35 35 35 32 32 33 34 36 39
23 23 21 20 19 18 19 19 18 17 15 15 18 25 27 25 25 25 24 22 22 22 22 22 23 25 28 30 33 34 34 33 33 34 35 33 31 31 32 33 35 38
24 24 24 24 22 19 21 22 21 19 16 17 21 25 24 22 22 23 22 22 23 23 23 23 24 26 29 31 33 33 32 31 31 32 33 33 32 33 32 34 35 36
25 25 26 28 27 23 24 23 19 18 18 19 20 20 20 21 20 20 20 22 22 23 24 25 26 27 28 31 33 35 34 33 33 34 35 35 36 37 36 35 36 36
26 26 29 35 35 32 29 23 19 20 23 22 21 21 23 24 23 23 25 25 25 26 28 27 27 28 28 30 33 36 38 38 38 40 41 41 41 43 44 42 40 40
27 28 33 41 43 40 35 27 21 23 26 25 23 22 24 25 26 29 31 31 30 32 33 32 31 29 28 30 33 37 39 40 42 44 47 48 48 47 46 44 41 41
29 30 36 43 46 43 39 31 24 25 28 26 24 23 24 27 29 31 32 33 34 36 36 36 35 33 32 33 34 37 40 41 41 44 48 51 50 48 46 47 47 44
29 33 38 45 46 42 39 33 27 26 28 27 24 23 24 27 30 31 32 33 35 35 36 37 37 37 36 36 37 39 41 41 41 41 43 46 48 49 49 53 55 51
31 35 42 47 44 40 38 35 29 28 30 28 24 23 26 29 31 32 33 34 34 34 35 38 39 39 39 38 38 40 42 43 43 43 42 45 49 50 50 53 55 53
33 39 46 49 45 41 38 34 31 32 32 27 24 24 27 30 31 32 33 33 33 35 37 38 38 39 39 40 39 40 42 44 46 46 46 48 51 51 50 50 51 51
38 47 54 53 48 44 38 32 31 32 29 25 23 23 27 29 30 31 31 33 35 37 39 39 38 39 40 40 39 41 44 46 48 49 49 49 49 49 47 45 46 46
47 55 59 54 47 41 35 29 27 27 24 22 22 23 27 29 30 31 32 34 35 36 37 37 37 38 39 39 39 41 43 46 49 49 48 49 47 45 43 44 43 42
51 54 55 50 43 38 33 27 25 24 22 21 21 23 26 27 29 30 31 32 32 31 33 35 36 36 37 38 39 39 39 41 42 42 42 44 44 42 43 45 44 43
55 57 55 49 43 37 31 27 25 24 22 20 21 22 24 26 27 29 30 30 29 29 32 34 34 34 34 34 36 36 36 37 37 37 38 41 42 43 45 46 47 49
62 60 55 48 41 35 30 27 26 25 22 21 23 25 28 29 30 30 31 32 32 33 35 34 32 31 32 33 35 36 37 37 37 37 39 42 44 46 47 47 50 56
61 57 50 44 38 33 29 28 27 25 23 24 26 29 33 34 35 36 37 38 38 38 37 34 31 31 33 35 35 36 37 38 38 39 42 45 48 50 49 49 54 61
58 53 46 41 35 31 29 29 29 27 26 27 29 33 37 38 40 43 45 46 45 42 39 37 35 34 35 36 36 36 37 37 39 41 43 46 50 52 51 53 59 64
58 49 42 38 33 30 29 29 29 27 28 30 32 35 39 42 45 48 51 53 51 45 42 42 41 38 35 36 37 37 37 38 40 43 45 47 52 53 53 56 61 64
54 43 38 35 29 27 28 27 27 29 30 32 35 37 41 45 50 51 52 54 53 50 48 48 48 43 38 38 40 41 41 42 44 47 49 50 53 54 55 58 61 64
47 39 36 30 27 27 28 29 31 33 34 36 38 40 43 47 51 53 54 56 57 55 54 53 49 46 45 46 46 47 48 50 51 51 50 51 53 54 56 59 63 64
42 37 33 29 28 29 31 32 35 36 38 41 42 42 44 47 50 54 58 59 58 59 61 61 59 59 64 67 66 63 61 60 59 55 51 51 53 55 57 61 66 66
41 34 31 30 31 33 35 37 38 39 41 44 45 46 48 49 53 57 62 65 69 74 75 74 72 74 79 82 80 77 73 68 65 59 52 51 55 58 59 62 66 67
40 34 33 34 35 37 39 40 41 43 45 47 50 52 54 57 59 61 65 71 78 81 78 72 70 72 74 74 71 70 70 69 65 58 52 51 56 61 62 63 65 65
39 38 38 38 39 41 44 48 50 53 55 57 58 58 60 64 64 60 61 66 69 70 67 62 59 58 55 53 53 55 60 64 63 57 53 54 58 63 65 64 63 63
43 45 45 45 48 53 61 69 69 65 65 65 65 66 67 67 65 61 59 61 63 65 62 58 53 48 42 40 41 46 52 58 57 54 54 58 61 65 67 65 63 62